User: anonymous   Login
Location: Theydon Bois
(51.6750°N, 0.1050°E)
Time: 23:53:01
(UTC+00:00)
Language:

Cosmos 2058 - Orbit

View from above orbital plane
View from above orbital plane
View from above satellite
View from above satellite

Ground track
Ground track

The orbit data is extracted from the following two-line orbital elements,

1 20465U 90010A   17346.81936368  .00000308  00000-0  23904-4 0  9995
2 20465  82.4909  76.1013 0016777  56.8128 303.4701 14.97641518512076
Epoch (UTC): 12 December 2017 19:39:53
Eccentricity: 0.0016777
inclination: 82.4909°
perigee height: 562 km
apogee height: 586 km
right ascension of ascending node: 76.1013°
argument of perigee: 56.8128°
revolutions per day: 14.97641518
mean anomaly at epoch: 303.4701°
orbit number at epoch: 51207

The dashed part of the orbit path shows where the satellite is in the earth's shadow,  

DLR